Nowra Airport

Jump to: basic info | weather | frequencies | runways | comments

Related pages: nearby airports | nearby navaids | notams | map

Basic information (top)

Codes: NOA YSNW
Location: lon -34.948898, lat 150.537003, elev 400 ft / 122 m msl
Status: medium_airport

Weather (top)

Current conditions (rec'd 2014/09/02 16:30Z):

YSNW 021630Z AUTO 21021G34KT 9999 // BKN115 11/02 Q1012

Airport forecast for Sydney Kingsford Smith International Airport 68nm (126km) NNE (rec'd 2014/09/01 06:28Z):

TAF YSSY 010514Z 0106/0212 04010KT CAVOK 
     FM010900 33008KT CAVOK 
     FM011800 25010KT 9999 FEW035 BKN100 
     FM012100 22010KT 9999 -RA SCT030 BKN050 
     FM020100 20020G30KT 9999 -SHRA FEW015 SCT025 
     FM020600 19030G40KT 9999 -SHRA FEW020 SCT030 INTER 0200/0209 4000 SHRA BKN010 
      RMK FROM 020100 MOD TURB BLW 5000FT

Frequencies (top)

Verify before use: may be inaccurate or out of date.

APP: 123.5 MHz (APP)
ATIS: 28.04 MHz (ATIS)
CLD: 128.35 MHz (CLNC DEL)
CTAF: 118.85 MHz (CTAF)
FSS: 121.2 MHz (MELBOURNE CNTR)
GND: 135.85 MHz (GND)
TWR: 118.85 MHz (TWR)

Runways (top)

03/21: 6,713 x 148 ft (2,046 x 45 m) — paved — lighted

08/26: 6,870 x 148 ft (2,094 x 45 m) — paved — lighted — threshold 26 displaced 298 ft (91 m)

Latest comments (top)

No comments yet for Nowra Airport

More... (top)

See also NOTAMs and nearby airports and navaids, or visit the Nowra Airport page at the main OurAirports website..